Flag for Italy Weather past 2 weeks in Bolzano, Italy

Now
72 °F

Partly sunny.


Feels Like: 75 °F
Forecast: 53 / 79 °F
Wind: 2 mph from North

Location: Bolzano

Current Time: Sep 19, 2014 at 1:54:29 PM

Latest Report: Sep 19, 2014 at 12:50 PM


Visibility: N/A

Pressure: 30.09 "Hg

Humidity: 65%

Dew point: 59 °F

Location of BolzanoLocation

Historic Weather in Bolzano — Graph

°F

Bolzano temperature yesterday

Maximum temperature yesterday: 75 °F (at 11:50 AM)
Minimum temperature yesterday: 64 °F (at 6:50 AM)
Average temperature yesterday: 71 °F

Past Weeks' High & Low Weather Summary

 TemperatureHumidityPressure
High84 °F (Sep 6, 3:50 PM)100% (Sep 5, 6:50 AM)30.12 "Hg (Sep 5, 6:50 AM)
Low50 °F (Sep 12, 6:50 AM)32% (Sep 12, 3:50 PM)29.74 "Hg (Sep 11, 2:50 PM)
Average70 °F73%29.96 "Hg
* Reported Sep 4 11:04 AM — Sep 19 11:50 AM, Bolzano, Weather by CustomWeather, © 2014

Note: Actual official high and low records may vary slightly from our data, if they occured in-between our weather recording intervals... More about our weather records

Advertising

Bolzano weather history for previous 24 hours

 ConditionsComfort  
Time TempWeatherWind HumidityBarometerVisibility
11:50 AM
Sep 19
70 °FPartly sunny.2 mph73%30.12 "HgN/A
10:50 AM68 °FScattered clouds.1 mph78%30.12 "HgN/A
9:50 AM66 °FPartly sunny.1 mph83%30.12 "HgN/A
8:50 AM64 °FPartly sunny.1 mph88%30.12 "HgN/A
7:50 AM63 °FPassing clouds.No wind94%30.09 "HgN/A
6:50 AM63 °FPassing clouds.1 mph94%30.09 "Hg6 mi
10:50 PM
Sep 18
68 °FPartly cloudy.No wind73%30.09 "HgN/A
9:50 PM70 °FPartly cloudy.3 mph69%30.07 "HgN/A
8:50 PM70 °FPartly cloudy.5 mph69%30.04 "HgN/A
7:50 PM70 °FBroken clouds.3 mph69%30.04 "HgN/A
6:50 PM73 °FBroken clouds.2 mph61%30.04 "HgN/A
5:50 PM73 °FBroken clouds.3 mph65%30.01 "HgN/A
4:50 PM73 °FBroken clouds.3 mph65%30.01 "HgN/A
3:50 PM75 °FBroken clouds.2 mph61%30.01 "HgN/A
2:50 PM73 °FBroken clouds.5 mph65%30.01 "HgN/A
1:50 PM73 °FScattered clouds.6 mph65%30.01 "HgN/A
Weather by CustomWeather, © 2014

See weather overviewHow to use our weather pages